Погода в Бибирево

Россия / Ивановская область     57°08′21″N   41°02′27″E
темп.,
°C
ветер,
м/с
пор.,
м/с
влажн.,
%
обл.,
%
осадки,
мм/ч
давл.,
гПа
погр.,
м
20 апреля, вт
вт2000:00+2в5136492 0.0 1029485
03:000в513685 0.0 1028382
06:000в512685 0.0 1028377
09:00+5вюв61052100 0.0 1027655
12:00+8вюв81046100 0.0 10251264
15:00+9вюв81145100 0.0 10241690
18:00+8вюв71247100 0.0 10221271
21:00+6в71549100 0.0 1020707
21 апреля, ср
ср2100:00+5в71454100 0.0 1017757
03:00+3вюв91773100 0.4 1013901
06:00+1вюв91997100 5.8 10091057
09:00+3вюв101990100 5.9 1007834
12:00+5вюв91793100 0.3 1005936
15:00+6юв91693100 0.6 1003857
18:00+4ююз61093100 1.4 1006774
21:00+3ююз51090100 1.4 1009632
22 апреля, чт
чт2200:00+3ююз51091100 0.1 1010659
03:00+4ююз51092100 0.1 1011649
06:00+4ююз51094100 0.1 1013694
09:00+4ююз5897100 0.2 1014578
12:00+8ююз6874100 0.1 10151052
15:00+9ю587363 0.1 1016926
18:00+9ю597410 0.2 1017680
21:00+6ю4108771 0.2 1018223
23 апреля, пт
пт2300:00+4ю3109297 0.0 1018192
03:00+3ююв38945 0.0 1018143
06:00+4ююв410945 0.0 1018229
09:00+9ююв597963 0.0 1017452
12:00+14ю676214 0.0 10171214
15:00+16ю675253 0.3 10151652
18:00+15ю596099 1.3 1015334
21:00+11ююв5137682 2.4 1015368
24 апреля, сб
сб2400:00+11ююв5137895 0.0 1014394
03:00+7ююв412885 0.0 1013250
06:00+8юв512875 0.0 1012315
09:00+12юв7136876 0.0 1011770
12:00+15ююв8125671 0.9 10091814
15:00+15ю71058100 3.3 10081657
18:00+7зсз3590100 5.2 1008369
21:00+3зсз6997100 11.3 1009395